WetterOnline ( https://www.wetteronline.de )

Wetter aktuell Schmalkalden

Aktuelles Wetter: Meiningen (453m)

6-stündlich | Neueste Meldungen
Ortszeit Temperatur Wetter
So, 22.05. 8:00 10.2° C bewölkt
So, 22.05. 2:00 10.4° C wolkig
Sa, 21.05. 20:00 15.7° C bedeckt
Sa, 21.05. 14:00 16.0° C bewölkt
Sa, 21.05. 8:00 11.4° C fast wolkenlos
Sa, 21.05. 2:00 13.5° C bewölkt
Fr, 20.05. 20:00 19.1° C wolkig
Fr, 20.05. 14:00 19.4° C leicht bewölkt
Ortszeit Temperatur Wetter
So, 22.05. 9:00 12.2° C bewölkt
So, 22.05. 8:40 11.7° C bedeckt
So, 22.05. 8:30 11.7° C bedeckt
So, 22.05. 8:20 11.7° C bedeckt
So, 22.05. 8:10 11.4° C bewölkt
So, 22.05. 8:00 10.2° C bewölkt
So, 22.05. 7:50 10.2° C bewölkt
So, 22.05. 7:30 9.5° C bewölkt
So, 22.05. 7:00 9.3° C bedeckt
So, 22.05. 6:30 9.0° C bewölkt
So, 22.05. 6:00 7.9° C bewölkt
Ortszeit Relative Feuchte Sichtweite
So, 22.05. 8:00 87% 35 km
So, 22.05. 2:00 81% 40 km
Sa, 21.05. 20:00 52% 60 km
Sa, 21.05. 14:00 56% 55 km
Sa, 21.05. 8:00 68% 60 km
Sa, 21.05. 2:00 79% 45 km
Fr, 20.05. 20:00 83% 50 km
Fr, 20.05. 14:00 83% 25 km
Ortszeit Relative Feuchte Sichtweite
So, 22.05. 9:00 72% 55 km
So, 22.05. 8:40 79% -
So, 22.05. 8:30 81% 40 km
So, 22.05. 8:20 81% -
So, 22.05. 8:10 81% -
So, 22.05. 8:00 87% 35 km
So, 22.05. 7:50 87% -
So, 22.05. 7:30 87% 30 km
So, 22.05. 7:00 93% 30 km
So, 22.05. 6:30 89% 35 km
So, 22.05. 6:00 91% 29 km
Ortszeit Niederschlagsmenge Niederschlagsart
So, 22.05. 8:00 0.0 l/m2 in 12 Std. -
So, 22.05. 2:00 0.0 l/m2 in 6 Std. -
Sa, 21.05. 20:00 0.0 l/m2 in 12 Std. -
Sa, 21.05. 14:00 0.0 l/m2 in 6 Std. -
Sa, 21.05. 8:00 0.6 l/m2 in 12 Std. -
Sa, 21.05. 2:00 0.6 l/m2 in 6 Std. Regen
Fr, 20.05. 20:00 6 l/m2 in 12 Std. Regen
Fr, 20.05. 14:00 1 l/m2 in 6 Std. Regen
Ortszeit Niederschlagsmenge Niederschlagsart
So, 22.05. 9:00 0.0 l/m2 in 1 Std. -
So, 22.05. 8:40 keine Meldung -
So, 22.05. 8:30 0.0 l/m2 in 1 Std. -
So, 22.05. 8:20 keine Meldung -
So, 22.05. 8:10 keine Meldung -
So, 22.05. 8:00 0.0 l/m2 in 1 Std. -
So, 22.05. 7:50 keine Meldung -
So, 22.05. 7:30 0.0 l/m2 in 1 Std. -
So, 22.05. 7:00 0.0 l/m2 in 1 Std. -
So, 22.05. 6:30 0.0 l/m2 in 1 Std. -
So, 22.05. 6:00 0.0 l/m2 in 1 Std. -
Ortszeit Stärke Spitze Richtung
km/h Bft. km/h Grad Sektor
So, 22.05. 8:00 2 1 6 40° NO
So, 22.05. 2:00 2 1 19 10° N
Sa, 21.05. 20:00 7 2 40 280° W
Sa, 21.05. 14:00 22 4 36 270° W
Sa, 21.05. 8:00 18 3 43 260° W
Sa, 21.05. 2:00 18 3 58 290° W
Fr, 20.05. 20:00 7 2 40 190° S
Fr, 20.05. 14:00 9 2 19 140° SO
Ortszeit Stärke Spitze Richtung
km/h Bft. km/h Grad Sektor
So, 22.05. 9:00 4 1 7 160° S
So, 22.05. 8:40 4 1 - 140° SO
So, 22.05. 8:30 0 0 4 - -
So, 22.05. 8:20 2 1 - 160° S
So, 22.05. 8:10 2 1 - 240° SW
So, 22.05. 8:00 2 1 6 40° NO
So, 22.05. 7:50 2 1 - 40° NO
So, 22.05. 7:30 4 1 4 10° N
So, 22.05. 7:00 0 0 4 - -
So, 22.05. 6:30 2 1 4 220° SW
So, 22.05. 6:00 4 1 7 170° S
Ortszeit Untergrenze Bedeckung Gattung
total tief tief mittel hoch
So, 22.05. 8:00 1500 m 7/8 7/8 - - -
So, 22.05. 2:00 3300 m 5/8 5/8 - - -
Sa, 21.05. 20:00 4200 m 8/8 8/8 - - -
Sa, 21.05. 14:00 1200 m 7/8 7/8 - - -
Sa, 21.05. 8:00 9000 m 1/8 0/8 - - -
Sa, 21.05. 2:00 720 m 7/8 7/8 - - -
Fr, 20.05. 20:00 2100 m 7/8 1/8 - - -
Fr, 20.05. 14:00 270 m 3/8 3/8 - - -
Ortszeit Bedeckungsgrad in Achtel und Wolkenuntergrenze
So, 22.05. 9:00 7(1500m)
So, 22.05. 8:40 8
So, 22.05. 8:30 8(1500m)
So, 22.05. 8:20 8(1500m)
So, 22.05. 8:10 7
So, 22.05. 8:00 7(1500m)
So, 22.05. 7:50 7(1500m)
So, 22.05. 7:30 7(1500m)
So, 22.05. 7:00 8(1500m)
So, 22.05. 6:30 7(1500m)
So, 22.05. 6:00 5(1470m) 8(5400m)
Ortszeit Luftdruck NN (hPa) Tendenz (hPa in 3 Std.)
So, 22.05. 8:00 1019 - 0,1
So, 22.05. 2:00 1020 - 1,1
Sa, 21.05. 20:00 1020 - 1,0
Sa, 21.05. 14:00 1021 - 0,1
Sa, 21.05. 8:00 1022 + 0,9
Sa, 21.05. 2:00 1018 + 2,1
Fr, 20.05. 20:00 1013 - 2,8
Fr, 20.05. 14:00 1019 - 1,8
Ortszeit Luftdruck NN (hPa) Tendenz (hPa in 3 Std.)
So, 22.05. 9:00 1018 - 0,1
So, 22.05. 8:40 1018 keine Meldung
So, 22.05. 8:30 1019 - 0,1
So, 22.05. 8:20 1019 keine Meldung
So, 22.05. 8:10 1019 keine Meldung
So, 22.05. 8:00 1019 - 0,1
So, 22.05. 7:50 1019 keine Meldung
So, 22.05. 7:30 1019 - 0,5
So, 22.05. 7:00 1019 - 0,8
So, 22.05. 6:30 1019 - 0,6
So, 22.05. 6:00 1019 - 0,9
Ortszeit Schneehöhe (cm)
So, 22.05. 8:00 0
So, 22.05. 2:00 0
Sa, 21.05. 20:00 0
Sa, 21.05. 14:00 0
Sa, 21.05. 8:00 0
Sa, 21.05. 2:00 0
Fr, 20.05. 20:00 0
Fr, 20.05. 14:00 0
Ortszeit Schneehöhe (cm)
So, 22.05. 9:00 0
So, 22.05. 8:40 0
So, 22.05. 8:30 0
So, 22.05. 8:20 0
So, 22.05. 8:10 0
So, 22.05. 8:00 0
So, 22.05. 7:50 0
So, 22.05. 7:30 0
So, 22.05. 7:00 0
So, 22.05. 6:30 0
So, 22.05. 6:00 0
Link zu dieser Seite / Seite empfehlen

Das Wetter in ...